Time,TemperatureF,DewpointF,PressureIn,WindDirection,WindDirectionDegrees,WindSpeedMPH,WindSpeedGustMPH,Humidity,HourlyPrecipIn,Conditions,Clouds,dailyrainin,SoftwareType,DateUTC
2013-01-20 00:00:00,29.0,-99.9,-100.00,West,270,1.0,2.0,-999,-99.99,,,-99.99,,2013-01-20 07:00:00,
2013-01-20 00:53:00,29.0,-99.9,-100.00,West,270,1.0,2.0,-999,-99.99,,,-99.99,,2013-01-20 07:53:00,
2013-01-20 01:00:00,29.0,-99.9,-100.00,South,183,3.0,3.0,-999,-99.99,,,-99.99,,2013-01-20 08:00:00,
2013-01-20 01:53:00,29.0,-99.9,-100.00,South,183,3.0,3.0,-999,-99.99,,,-99.99,,2013-01-20 08:53:00,
2013-01-20 02:00:00,31.0,-99.9,-100.00,ESE,114,4.0,12.0,-999,-99.99,,,-99.99,,2013-01-20 09:00:00,
2013-01-20 02:53:00,31.0,-99.9,-100.00,ESE,114,4.0,12.0,-999,-99.99,,,-99.99,,2013-01-20 09:53:00,
2013-01-20 03:00:00,31.0,-99.9,-100.00,South,183,6.0,8.0,-999,-99.99,,,-99.99,,2013-01-20 10:00:00,
2013-01-20 03:53:00,31.0,-99.9,-100.00,South,183,6.0,8.0,-999,-99.99,,,-99.99,,2013-01-20 10:53:00,
2013-01-20 04:00:00,31.0,-99.9,-100.00,SSW,202,3.0,5.0,-999,-99.99,,,-99.99,,2013-01-20 11:00:00,
2013-01-20 04:54:00,31.0,-99.9,-100.00,SSW,202,3.0,5.0,-999,-99.99,,,-99.99,,2013-01-20 11:54:00,
2013-01-20 05:00:00,29.0,-99.9,-100.00,WSW,240,9.0,9.0,-999,-99.99,,,-99.99,,2013-01-20 12:00:00,
2013-01-20 05:53:00,29.0,-99.9,-100.00,WSW,240,9.0,9.0,-999,-99.99,,,-99.99,,2013-01-20 12:53:00,
2013-01-20 06:00:00,27.0,-99.9,-100.00,WSW,237,1.0,3.0,-999,-99.99,,,-99.99,,2013-01-20 13:00:00,
2013-01-20 06:53:00,27.0,-99.9,-100.00,WSW,237,1.0,3.0,-999,-99.99,,,-99.99,,2013-01-20 13:53:00,
2013-01-20 07:00:00,27.0,-99.9,-100.00,NW,309,2.0,3.0,-999,-99.99,,,-99.99,,2013-01-20 14:00:00,
2013-01-20 07:53:00,27.0,-99.9,-100.00,NW,309,2.0,3.0,-999,-99.99,,,-99.99,,2013-01-20 14:53:00,
2013-01-20 08:00:00,29.0,-99.9,-100.00,WNW,300,5.0,6.0,-999,-99.99,,,-99.99,,2013-01-20 15:00:00,
2013-01-20 08:53:00,29.0,-99.9,-100.00,WNW,300,5.0,6.0,-999,-99.99,,,-99.99,,2013-01-20 15:53:00,
2013-01-20 09:00:00,32.0,-99.9,-100.00,WNW,282,3.0,5.0,-999,-99.99,,,-99.99,,2013-01-20 16:00:00,
2013-01-20 09:53:00,32.0,-99.9,-100.00,WNW,282,3.0,5.0,-999,-99.99,,,-99.99,,2013-01-20 16:53:00,
2013-01-20 10:00:00,39.0,-99.9,-100.00,North,357,25.0,34.0,-999,-99.99,,,-99.99,,2013-01-20 17:00:00,
2013-01-20 10:53:00,39.0,-99.9,-100.00,North,357,25.0,34.0,-999,-99.99,,,-99.99,,2013-01-20 17:53:00,
2013-01-20 11:00:00,37.0,-99.9,-100.00,NNE,23,29.0,33.0,-999,-99.99,,,-99.99,,2013-01-20 18:00:00,
2013-01-20 11:53:00,37.0,-99.9,-100.00,NNE,23,29.0,33.0,-999,-99.99,,,-99.99,,2013-01-20 18:53:00,
2013-01-20 12:00:00,33.0,-99.9,-100.00,North,9,24.0,30.0,-999,-99.99,,,-99.99,,2013-01-20 19:00:00,
2013-01-20 12:53:00,33.0,-99.9,-100.00,North,9,24.0,30.0,-999,-99.99,,,-99.99,,2013-01-20 19:53:00,
2013-01-20 13:00:00,35.0,-99.9,-100.00,NNE,26,29.0,31.0,-999,-99.99,,,-99.99,,2013-01-20 20:00:00,
2013-01-20 13:54:00,35.0,-99.9,-100.00,NNE,26,29.0,31.0,-999,-99.99,,,-99.99,,2013-01-20 20:54:00,
2013-01-20 14:00:00,33.0,-99.9,-100.00,NNE,33,19.0,23.0,-999,-99.99,,,-99.99,,2013-01-20 21:00:00,
2013-01-20 14:54:00,33.0,-99.9,-100.00,NNE,33,19.0,23.0,-999,-99.99,,,-99.99,,2013-01-20 21:54:00,
2013-01-20 15:00:00,32.0,-99.9,-100.00,NE,41,8.0,15.0,-999,-99.99,,,-99.99,,2013-01-20 22:00:00,
2013-01-20 15:53:00,32.0,-99.9,-100.00,NE,41,8.0,15.0,-999,-99.99,,,-99.99,,2013-01-20 22:53:00,
2013-01-20 16:00:00,31.0,-99.9,-100.00,ENE,66,11.0,12.0,-999,-99.99,,,-99.99,,2013-01-20 23:00:00,
2013-01-20 16:53:00,31.0,-99.9,-100.00,ENE,66,11.0,12.0,-999,-99.99,,,-99.99,,2013-01-20 23:53:00,
2013-01-20 17:00:00,29.0,-99.9,-100.00,ENE,67,5.0,7.0,-999,-99.99,,,-99.99,,2013-01-21 00:00:00,
2013-01-20 17:54:00,29.0,-99.9,-100.00,ENE,67,5.0,7.0,-999,-99.99,,,-99.99,,2013-01-21 00:54:00,
2013-01-20 18:00:00,27.0,-99.9,-100.00,NW,322,3.0,4.0,-999,-99.99,,,-99.99,,2013-01-21 01:00:00,
2013-01-20 18:53:00,27.0,-99.9,-100.00,NW,322,3.0,4.0,-999,-99.99,,,-99.99,,2013-01-21 01:53:00,
2013-01-20 19:00:00,25.0,-99.9,-100.00,WSW,253,1.0,3.0,-999,-99.99,,,-99.99,,2013-01-21 02:00:00,
2013-01-20 19:54:00,25.0,-99.9,-100.00,WSW,253,1.0,3.0,-999,-99.99,,,-99.99,,2013-01-21 02:54:00,
2013-01-20 20:00:00,23.0,-99.9,-100.00,NW,315,3.0,4.0,-999,-99.99,,,-99.99,,2013-01-21 03:00:00,
2013-01-20 20:54:00,23.0,-99.9,-100.00,NW,315,3.0,4.0,-999,-99.99,,,-99.99,,2013-01-21 03:54:00,
2013-01-20 21:00:00,23.0,-99.9,-100.00,SE,127,0.0,1.0,-999,-99.99,,,-99.99,,2013-01-21 04:00:00,
2013-01-20 21:53:00,23.0,-99.9,-100.00,SE,127,0.0,1.0,-999,-99.99,,,-99.99,,2013-01-21 04:53:00,
2013-01-20 22:00:00,22.0,-99.9,-100.00,ENE,60,2.0,6.0,-999,-99.99,,,-99.99,,2013-01-21 05:00:00,
2013-01-20 22:53:00,22.0,-99.9,-100.00,ENE,60,2.0,6.0,-999,-99.99,,,-99.99,,2013-01-21 05:53:00,
2013-01-20 23:00:00,20.0,-99.9,-100.00,WNW,298,4.0,4.0,-999,-99.99,,,-99.99,,2013-01-21 06:00:00,
2013-01-20 23:53:00,20.0,-99.9,-100.00,WNW,298,4.0,4.0,-999,-99.99,,,-99.99,,2013-01-21 06:53:00,